[[{"header":{"parameterUnit":"m.s-1","parameterCategory":1,"la1":30.2991,"la2":30.254,"lo1":-89.0895,"lo2":-89.0444,"dy":0.0017,"dx":0.0017,"nx":28,"ny":28,"refTime":"2024-08-25T03:00:00:Z","depth":0,"parameterNumber":2,"parameterNumberName":"U-component_of_WINDS"},"data":[0,0,0,0,0,0,0,0,0,0,0,0,0,0,0,0,0,0,0,0,0,0,0,0,0,0,0,0,0,0,0,0,0,0,0,0,0,0,0,0,0,0,0,0,0,0,0,0,0,0,0,0,0,0,0,0,0,0,-0.0488,-0.0488,0,-0.0499,-0.0499,-0.0499,-0.0485,-0.0485,-0.0484,-0.0484,-0.0496,-0.0497,-0.0498,0,0,0,0,0,0,0,0,0,0,0,0,0,-0.0458,-0.0459,-0.0488,-0.0488,-0.0488,-0.0499,-0.0499,-0.0499,-0.0485,-0.0485,-0.0484,-0.0483,-0.0496,-0.0497,-0.0498,0,0,0,0,0,0,0,0,0,0,0,0,0,-0.047,-0.0459,-0.0488,-0.0483,-0.0482,-0.0499,-0.0499,-0.0499,-0.0485,-0.0485,-0.0484,-0.0483,-0.0496,-0.0497,-0.0498,-0.0521,0,0,-0.0502,-0.0502,0,0,0,0,0,0,0,0,-0.0469,-0.0471,-0.0483,-0.0483,-0.0483,-0.049,-0.0493,-0.0506,-0.0486,-0.0484,-0.0484,-0.0483,-0.0495,-0.0496,-0.05,-0.0522,-0.0522,-0.0502,-0.0503,-0.0503,-0.0504,0,0,0,0,0,0,0,-0.0469,-0.0471,-0.0492,-0.0483,-0.0483,-0.048,-0.0481,-0.0495,-0.0494,-0.0484,-0.0483,-0.0485,-0.0495,-0.0499,-0.05,-0.0522,-0.0502,-0.0503,-0.0504,-0.0504,-0.0565,-0.0566,0,0,0,0,0,0,-0.0468,-0.047,-0.0492,-0.0493,-0.0474,-0.0482,-0.0483,-0.0488,-0.0494,-0.0494,-0.0485,-0.0484,-0.0497,-0.0499,-0.0501,-0.0529,-0.0503,-0.0504,-0.0505,-0.0564,-0.0565,-0.0566,0,0,0,0,0,0,-0.0467,-0.047,-0.0491,-0.0481,-0.0484,-0.0483,-0.0489,-0.0489,-0.0493,-0.0494,-0.0494,-0.049,-0.0497,-0.0499,-0.0516,-0.0529,-0.0505,-0.0506,-0.0563,-0.0565,-0.0566,-0.0585,0,0,0,0,0,0,-0.0467,-0.047,-0.0478,-0.0481,-0.0484,-0.0506,-0.049,-0.049,-0.0495,-0.0493,-0.0498,-0.0499,-0.0496,-0.0515,-0.0518,-0.0531,-0.0507,-0.0562,-0.0564,-0.0566,-0.0584,-0.0587,-0.059,0,0,0,0,0,-0.0466,-0.0483,-0.0478,-0.0481,-0.0494,-0.0507,-0.0509,-0.0505,-0.0496,-0.0505,-0.0506,-0.0498,-0.0527,-0.0517,-0.052,-0.0533,-0.0561,-0.0563,-0.0565,-0.0582,-0.0587,-0.059,0,0,0,0,0,0,-0.0482,-0.0483,-0.0478,-0.0497,-0.0502,-0.0505,-0.0515,-0.051,-0.0518,-0.0516,-0.0512,-0.0513,-0.0532,-0.0534,-0.0522,-0.0557,-0.0543,-0.0546,-0.0555,-0.0559,-0.0562,-0.0562,-0.0508,0,0,0,0,0,-0.0487,-0.0497,-0.0498,-0.0515,-0.0517,-0.0516,-0.0522,-0.0518,-0.0524,-0.0526,-0.0528,-0.0534,-0.0545,-0.0551,-0.0561,-0.0584,-0.0586,-0.0595,-0.0598,-0.0601,-0.0604,-0.0618,-0.0622,-0.0573,-0.0573,-0.0573,0,0,-0.0499,-0.0501,-0.0508,-0.0518,-0.0522,-0.0533,-0.0518,-0.053,-0.0539,-0.0528,-0.0545,-0.0547,-0.0553,-0.0574,-0.0583,-0.0576,-0.0617,-0.0603,-0.0605,-0.0607,-0.062,-0.0625,-0.0629,-0.0574,-0.0574,-0.0574,0,0,-0.0527,-0.0529,-0.0544,-0.0548,-0.0553,-0.0552,-0.0556,-0.0559,-0.056,-0.0577,-0.057,-0.058,-0.0598,-0.0603,-0.0608,-0.0639,-0.0634,-0.0642,-0.0661,-0.0674,-0.0678,-0.0682,-0.0695,-0.0699,-0.0645,-0.0645,-0.0645,0,-0.0542,-0.0557,-0.0552,-0.0565,-0.0571,-0.0561,-0.0577,-0.0581,-0.0589,-0.0594,-0.0586,-0.0609,-0.0612,-0.0635,-0.0643,-0.0646,-0.0652,-0.0642,-0.0678,-0.0681,-0.0684,-0.0697,-0.0701,-0.0646,-0.0646,-0.0646,-0.0646,0,-0.0576,-0.0587,-0.0599,-0.0607,-0.0614,-0.0628,-0.0626,-0.0633,-0.063,-0.063,-0.0648,-0.0652,-0.0663,-0.0668,-0.0664,-0.0691,-0.0687,-0.0678,-0.0665,-0.069,-0.0702,-0.0706,-0.0648,-0.0648,-0.0647,-0.0647,0,0,-0.0615,-0.062,-0.0625,-0.0629,-0.0634,-0.0644,-0.0658,-0.0668,-0.0676,-0.0682,-0.0695,-0.0711,-0.0704,-0.0709,-0.0707,-0.0718,-0.0745,-0.0709,-0.0709,-0.0717,-0.0777,-0.0784,-0.0789,-0.0741,-0.0742,-0.0742,-0.0777,0,-0.0644,-0.0668,-0.0664,-0.0689,-0.07,-0.0691,-0.0704,-0.0709,-0.071,-0.0721,-0.0722,-0.0734,-0.0722,-0.0726,-0.0737,-0.0739,-0.0757,-0.0737,-0.0755,-0.0755,-0.0755,-0.0795,-0.0803,-0.0835,-0.0781,-0.0782,-0.0782,0,-0.0681,-0.0689,-0.0714,-0.0719,-0.0724,-0.0735,-0.0746,-0.0755,-0.0762,-0.0762,-0.0769,-0.0764,-0.078,-0.0765,-0.0788,-0.0774,-0.0781,-0.0784,-0.0785,-0.0788,-0.0771,-0.0801,-0.0845,-0.085,-0.0789,-0.0788,-0.0788,0,-0.0709,-0.0726,-0.0744,-0.0747,-0.0753,-0.0762,-0.0765,-0.077,-0.0777,-0.0786,-0.0791,-0.0802,-0.0808,-0.0817,-0.0816,-0.0805,-0.084,-0.0825,-0.0842,-0.0842,-0.0851,-0.0851,-0.0899,-0.0853,-0.0853,-0.0853,-0.0853,0,-0.0743,-0.076,-0.0756,-0.0767,-0.0786,-0.0782,-0.08,-0.0802,-0.0808,-0.082,-0.0813,-0.0824,-0.0821,-0.0834,-0.0833,-0.0853,-0.0856,-0.0857,-0.0857,-0.0859,-0.0859,-0.0865,-0.0863,-0.0854,-0.0854,-0.0853,-0.0853,0,-0.0778,-0.0776,-0.0795,-0.0799,-0.0801,-0.0814,-0.0818,-0.083,-0.083,-0.0846,-0.0849,-0.085,-0.0864,-0.0863,-0.0879,-0.0879,-0.0905,-0.0901,-0.0902,-0.0902,-0.092,-0.0919,-0.0975,-0.0983,-0.093,-0.0931,-0.0931,0,-0.0801,-0.0813,-0.0818,-0.0826,-0.0829,-0.0841,-0.0849,-0.0845,-0.0853,-0.0862,-0.0873,-0.0886,-0.0896,-0.092,-0.0922,-0.0935,-0.0933,-0.0952,-0.0935,-0.0937,-0.0936,-0.0936,-0.0938,-0.0955,-0.0956,-0.0956,-0.0957,0,-0.0842,-0.0841,-0.0851,-0.0861,-0.087,-0.0878,-0.0885,-0.0892,-0.0889,-0.0899,-0.0913,-0.0921,-0.0938,-0.0952,-0.0964,-0.0968,-0.0963,-0.0962,-0.0967,-0.097,-0.0971,-0.0972,-0.0913,-0.0961,-0.096,-0.096,-0.096,-0.096,-0.0873,-0.0884,-0.089,-0.0902,-0.0907,-0.0914,-0.0925,-0.0927,-0.0938,-0.0951,-0.0948,-0.0965,-0.0972,-0.0988,-0.0994,-0.1008,-0.1001,-0.1008,-0.101,-0.1012,-0.1015,-0.0967,-0.101,-0.1009,-0.1009,-0.1009,-0.1009,0,-0.0915,-0.0918,-0.0929,-0.094,-0.095,-0.0942,-0.095,-0.096,-0.0974,-0.0981,-0.0992,-0.1009,-0.1023,-0.1027,-0.104,-0.1051,-0.1049,-0.1055,-0.1055,-0.1056,-0.1019,-0.1014,-0.1056,-0.1056,-0.1056,-0.1056,-0.1056,-0.1056,-0.0938,-0.0957,-0.0957,-0.0979,-0.0982,-0.0998,-0.1003,-0.1011,-0.1017,-0.1036,-0.1047,-0.1049,-0.1056,-0.107,-0.1083,-0.1084,-0.109,-0.1098,-0.1098,-0.1063,-0.1059,-0.1054,-0.105,-0.1099,-0.1099,-0.1134,-0.1135,-0.1135]},{"header":{"parameterUnit":"m.s-1","parameterCategory":1,"la1":30.2991,"la2":30.254,"lo1":-89.0895,"lo2":-89.0444,"dy":0.0017,"dx":0.0017,"nx":28,"ny":28,"refTime":"2024-08-25T03:00:00:Z","depth":0,"parameterNumber":3,"parameterNumberName":"V-component_of_WINDS"},"data":[0,0,0,0,0,0,0,0,0,0,0,0,0,0,0,0,0,0,0,0,0,0,0,0,0,0,0,0,0,0,0,0,0,0,0,0,0,0,0,0,0,0,0,0,0,0,0,0,0,0,0,0,0,0,0,0,0,0,2.4517,2.4517,0,2.4517,2.4517,2.4517,2.4529,2.4529,2.4529,2.453,2.4528,2.4528,2.4527,0,0,0,0,0,0,0,0,0,0,0,0,0,2.4525,2.4524,2.4517,2.4517,2.4517,2.4517,2.4517,2.4517,2.4529,2.4529,2.4529,2.453,2.4528,2.4528,2.4527,0,0,0,0,0,0,0,0,0,0,0,0,0,2.4523,2.4524,2.4517,2.4523,2.4523,2.4517,2.4517,2.4517,2.4529,2.4529,2.4529,2.453,2.4528,2.4528,2.4527,2.4515,0,0,2.4526,2.4526,0,0,0,0,0,0,0,0,2.4523,2.4522,2.4522,2.4522,2.4523,2.4523,2.4519,2.4516,2.4528,2.4526,2.453,2.453,2.4526,2.4526,2.4525,2.4515,2.4515,2.4526,2.4525,2.4525,2.4525,0,0,0,0,0,0,0,2.4523,2.4522,2.4517,2.4522,2.4522,2.4525,2.4525,2.4519,2.4524,2.4527,2.4528,2.4528,2.4526,2.4525,2.4525,2.4515,2.4526,2.4525,2.4525,2.4525,2.4495,2.4495,0,0,0,0,0,0,2.4522,2.4522,2.4517,2.4517,2.4524,2.4524,2.4525,2.4523,2.4524,2.4524,2.4527,2.4528,2.4526,2.4525,2.4525,2.451,2.4525,2.4525,2.4525,2.4496,2.4495,2.4495,0,0,0,0,0,0,2.4523,2.4522,2.4517,2.452,2.452,2.4524,2.4522,2.4522,2.4521,2.4524,2.4525,2.4525,2.4526,2.4525,2.4518,2.4511,2.4525,2.4524,2.4496,2.4496,2.4495,2.4482,0,0,0,0,0,0,2.4523,2.4522,2.4518,2.452,2.4519,2.451,2.4521,2.4522,2.4521,2.4522,2.4522,2.4523,2.4526,2.4518,2.4517,2.451,2.4524,2.4497,2.4496,2.4495,2.4483,2.4481,2.4479,0,0,0,0,0,2.4523,2.4513,2.4517,2.4517,2.4514,2.451,2.4509,2.4514,2.452,2.4516,2.4517,2.4523,2.4512,2.4517,2.4516,2.4509,2.4498,2.4496,2.4495,2.4484,2.4481,2.4479,0,0,0,0,0,0,2.4509,2.4514,2.4518,2.4509,2.4509,2.4512,2.4506,2.4511,2.4509,2.451,2.4516,2.4516,2.4507,2.4507,2.4513,2.4497,2.4506,2.4504,2.4497,2.4495,2.4493,2.4492,2.4523,0,0,0,0,0,2.4506,2.4502,2.4506,2.4498,2.4497,2.4502,2.45,2.4504,2.4504,2.4504,2.4505,2.4504,2.45,2.4498,2.4494,2.4483,2.4483,2.4478,2.4476,2.4474,2.4472,2.4466,2.4464,2.4491,2.4491,2.4491,0,0,2.4497,2.4499,2.4496,2.4495,2.4495,2.4491,2.4502,2.4497,2.4493,2.4503,2.4495,2.4496,2.4496,2.4486,2.4482,2.4486,2.4465,2.4473,2.4471,2.4471,2.4465,2.4462,2.446,2.449,2.4491,2.4491,0,0,2.448,2.4481,2.4474,2.4475,2.4475,2.4478,2.4477,2.4479,2.448,2.4473,2.448,2.4476,2.447,2.4469,2.4468,2.4451,2.4455,2.4449,2.4438,2.4432,2.443,2.4428,2.4422,2.4419,2.4448,2.4448,2.4448,0,2.4469,2.4463,2.447,2.4465,2.4464,2.4473,2.4465,2.4465,2.4465,2.4463,2.4468,2.4461,2.4461,2.4451,2.4447,2.4446,2.4444,2.4449,2.443,2.4428,2.4427,2.442,2.4418,2.4447,2.4447,2.4447,2.4447,0,2.445,2.4446,2.444,2.444,2.4439,2.4432,2.4437,2.4435,2.4439,2.4442,2.4434,2.4435,2.4432,2.443,2.4434,2.4421,2.4424,2.4429,2.4438,2.4423,2.4417,2.4415,2.4446,2.4446,2.4447,2.4447,0,0,2.4423,2.4427,2.4425,2.4425,2.4427,2.4424,2.4418,2.4416,2.4413,2.4413,2.4407,2.4402,2.4408,2.4406,2.441,2.4405,2.4391,2.4411,2.4411,2.4407,2.4376,2.4371,2.4369,2.4395,2.4394,2.4394,2.4376,0,2.4406,2.4396,2.4402,2.4392,2.4388,2.4397,2.4392,2.4392,2.4394,2.4391,2.4393,2.4389,2.4397,2.4396,2.4392,2.4394,2.4385,2.4395,2.4389,2.4389,2.4388,2.4366,2.436,2.4344,2.4374,2.4374,2.4373,0,2.4384,2.4383,2.4372,2.4375,2.4374,2.4369,2.4368,2.4365,2.4365,2.4367,2.4366,2.4371,2.4365,2.4374,2.4366,2.4373,2.4371,2.4371,2.4371,2.437,2.438,2.4363,2.4339,2.4336,2.437,2.437,2.437,0,2.4365,2.4361,2.4354,2.4354,2.4357,2.4354,2.4355,2.4356,2.4354,2.4353,2.4352,2.4349,2.4348,2.4346,2.435,2.4357,2.4341,2.435,2.4342,2.4342,2.4337,2.4337,2.4311,2.4337,2.4337,2.4338,2.4338,0,2.4344,2.4337,2.4345,2.4341,2.4333,2.434,2.4332,2.4334,2.4335,2.4331,2.4339,2.4334,2.4341,2.4337,2.4341,2.4333,2.4332,2.4333,2.4334,2.4332,2.4332,2.433,2.4331,2.4337,2.4337,2.4337,2.4337,0,2.4321,2.4326,2.4319,2.4323,2.4324,2.4318,2.4321,2.4317,2.432,2.4315,2.4314,2.4319,2.4315,2.4319,2.4316,2.4318,2.4307,2.431,2.4307,2.4308,2.4299,2.4299,2.427,2.4266,2.4295,2.4295,2.4295,0,2.4307,2.4302,2.4306,2.4304,2.4304,2.4301,2.43,2.4307,2.4305,2.4305,2.4301,2.4298,2.4296,2.4289,2.4292,2.4289,2.4291,2.4281,2.4291,2.4289,2.429,2.429,2.429,2.4279,2.4279,2.4278,2.4278,0,2.4282,2.4285,2.4283,2.4282,2.428,2.428,2.4279,2.4277,2.4284,2.4282,2.4278,2.4277,2.4274,2.427,2.4268,2.4269,2.4274,2.4275,2.4273,2.4271,2.4269,2.4269,2.4301,2.4276,2.4276,2.4276,2.4276,2.4276,2.4262,2.4258,2.426,2.4258,2.4259,2.4258,2.4255,2.4258,2.4255,2.4253,2.4258,2.4253,2.4254,2.4252,2.4252,2.4248,2.4252,2.4249,2.4248,2.4247,2.4246,2.427,2.4248,2.4248,2.4248,2.4248,2.4248,0,2.4237,2.4239,2.4237,2.4237,2.4235,2.4241,2.4242,2.4239,2.4235,2.4236,2.4234,2.423,2.4227,2.423,2.4227,2.4223,2.4226,2.4222,2.4222,2.4222,2.4242,2.4244,2.422,2.422,2.422,2.422,2.422,2.422,2.4224,2.4217,2.422,2.4214,2.4216,2.4212,2.4211,2.4211,2.4212,2.4207,2.4205,2.4207,2.4208,2.4206,2.4203,2.4204,2.4203,2.4198,2.42,2.4218,2.4221,2.4223,2.4225,2.4198,2.4198,2.418,2.418,2.418]}]]